Weather History for KSBY - April, 2013

Change the Weather History Date:

Thursday, April 4, 2013

  Actual Average Record
Temperature  
Mean Temperature 39 °F 51 °F  
Max Temperature 51 °F 61 °F 83 °F (1999)
Min Temperature 27 °F 40 °F 23 °F (1965)
Degree Days  
Heating Degree Days 26 15  
Month to date heating degree days 83 61  
Since 1 July heating degree days 3558 3996  
Cooling Degree Days 0 0  
Month to date cooling degree days 0 0  
Year to date cooling degree days 0 2  
Moisture  
Dew Point 20 °F    
Average Humidity 53    
Maximum Humidity 85    
Minimum Humidity 20    
Precipitation  
Precipitation 0.30 in 0.14 in 1.68 in (1984)
Month to date precipitation 0.32 0.55  
Year to date precipitation 11.87 11.93  
Snow  
Snow 0.00 in 0.00 in T in (1915)
Month to date snowfall 0.0 0.0  
Since 1 July snowfall 2.8 9.1  
Snow Depth 0.00 in    
Sea Level Pressure  
Sea Level Pressure 30.32 in    
Wind  
Wind Speed 5 mph (ESE)    
Max Wind Speed 14 mph    
Max Gust Speed 26 mph    
Visibility 9 miles    
Events Rain    
T = Trace of Precipitation, MM = Missing Value Source: NWS Daily Summary

Daily Weather History Graph

Daily Weather History Graph

Search for Another Location

Airport or City:

Trip Planner

Search our weather history database for the weather conditions in past years. The results will help you decide how hot, cold, wet, or windy it might be!

Date:

Astronomy

Apr. 04, 2013 Rise Set
Actual Time 6:42 AM EDT 7:28 PM EDT
Civil Twilight 6:15 AM EDT 7:55 PM EDT
Nautical Twilight 5:43 AM EDT 8:26 PM EDT
Astronomical Twilight 5:11 AM EDT 8:59 PM EDT
Moon 3:02 AM EDT (4/4) 1:48 PM EDT (4/4)
Length of Visible Light 13h 39m
Length of Day
12h 46m
Waning Crescent, 34% of the Moon is Illuminated
Apr 4
Waning Crescent
Apr 10
New
Apr 18
First Quarter
Apr 25
Full
May 2
Last Quarter

Hourly Weather History & Observations

Time (EDT) Temp. Windchill Dew Point Humidity Pressure Visibility Wind Dir Wind Speed Gust Speed Precip Events Conditions
12:54 AM 37.0 °F 31.0 °F 15.1 °F 41% 30.37 in 10.0 mi NNW 8.1 mph - N/A   Clear
1:54 AM 37.0 °F - 14.0 °F 39% 30.38 in 10.0 mi Calm Calm - N/A   Clear
2:54 AM 30.0 °F 26.5 °F 17.1 °F 59% 30.38 in 10.0 mi SSW 3.5 mph - N/A   Clear
3:54 AM 28.9 °F - 17.1 °F 61% 30.39 in 10.0 mi Calm Calm - N/A   Clear
4:54 AM 30.9 °F - 17.1 °F 57% 30.41 in 10.0 mi Calm Calm - N/A   Clear
5:54 AM 28.9 °F - 18.0 °F 64% 30.42 in 10.0 mi Calm Calm - N/A   Clear
6:54 AM 30.0 °F 24.1 °F 17.1 °F 59% 30.43 in 10.0 mi North 5.8 mph - N/A   Clear
7:54 AM 35.1 °F 29.3 °F 18.0 °F 50% 30.41 in 10.0 mi North 6.9 mph - N/A   Clear
8:54 AM 39.0 °F 33.4 °F 15.1 °F 38% 30.43 in 10.0 mi North 8.1 mph - N/A   Clear
9:54 AM 43.0 °F 40.3 °F 15.1 °F 32% 30.42 in 10.0 mi Variable 4.6 mph - N/A   Clear
10:54 AM 44.1 °F - 14.0 °F 30% 30.41 in 10.0 mi Calm Calm - N/A   Clear
11:54 AM 46.9 °F - 12.9 °F 25% 30.40 in 10.0 mi Calm Calm - N/A   Clear
12:54 PM 50.0 °F - 10.9 °F 21% 30.35 in 10.0 mi Variable 6.9 mph - N/A   Clear
1:54 PM 51.1 °F - 19.0 °F 28% 30.32 in 10.0 mi Variable 6.9 mph - N/A   Clear
2:54 PM 50.0 °F - 21.0 °F 32% 30.29 in 10.0 mi SSE 10.4 mph - N/A   Clear
3:54 PM 50.0 °F - 19.0 °F 29% 30.27 in 9.0 mi SE 11.5 mph - N/A   Clear
4:54 PM 48.9 °F - 18.0 °F 29% 30.27 in 10.0 mi SSE 9.2 mph - N/A   Clear
6:54 PM 46.0 °F 41.9 °F 26.1 °F 46% 30.22 in 10.0 mi SE 8.1 mph - N/A   Clear
7:54 PM 44.1 °F 42.5 °F 27.0 °F 51% 30.22 in 10.0 mi SSE 3.5 mph - N/A   Scattered Clouds
8:54 PM 44.1 °F 41.5 °F 28.0 °F 53% 30.18 in 10.0 mi SE 4.6 mph - N/A   Overcast
9:54 PM 39.9 °F - 34.0 °F 79% 30.19 in 6.0 mi Calm Calm - 0.04 in Rain Light Rain
10:54 PM 39.0 °F - 35.1 °F 86% 30.17 in 7.0 mi Calm Calm - 0.08 in Rain Light Rain
11:54 PM 39.0 °F 36.8 °F 35.1 °F 86% 30.12 in 4.0 mi NNE 3.5 mph - 0.08 in Rain Rain